Le nostre stazioni meteo in Italia

Pubblicità
Il mio iltempo24.it
Drumnadrochit, Gran Bretagna (99132): Temperatura & dewpoint: 22.06.2017 23:00:00 - 28.06.2017 23:00:00 (BST)Drumnadrochit, Gran Bretagna (99132): visibility: 22.06.2017 23:00:00 - 28.06.2017 23:00:00 (BST)Drumnadrochit, Gran Bretagna (99132): precipitazioni: 22.06.2017 23:00:00 - 28.06.2017 23:00:00 (BST)
Data & Tempo tt [°C] td [°C] vv [km] rr [mm]
28.06.2017 23:00:00 10,3 5,0 - 0,0
28.06.2017 22:00:00 10,6 5,0 - 0,0
28.06.2017 21:00:00 10,8 5,9 - 0,0
28.06.2017 20:00:00 11,9 5,9 - 0,0
28.06.2017 19:00:00 13,2 6,7 - 0,0
28.06.2017 18:00:00 13,1 7,7 - 0,0
28.06.2017 17:00:00 13,3 7,8 - 0,0
28.06.2017 16:00:00 14,2 8,4 - 0,0
28.06.2017 15:00:00 14,7 9,0 - 0,0
28.06.2017 14:00:00 15,1 9,4 - 0,0
28.06.2017 13:00:00 15,5 9,1 - 0,0
28.06.2017 12:00:00 14,5 10,2 - 0,0
28.06.2017 11:00:00 13,4 9,9 - 0,0
28.06.2017 10:00:00 13,0 9,4 0,2 0,0
28.06.2017 09:00:00 13,1 9,5 - 0,0
28.06.2017 08:00:00 12,5 10,1 - 0,0
28.06.2017 07:00:00 11,6 9,5 - 0,0
28.06.2017 06:00:00 11,0 9,7 - 0,0
28.06.2017 05:00:00 11,4 9,0 - 0,0
28.06.2017 04:00:00 11,1 8,9 - 0,0
28.06.2017 03:00:00 10,8 9,8 - 0,0
28.06.2017 02:00:00 11,3 9,5 - 0,0
28.06.2017 01:00:00 10,9 9,5 - 0,0
28.06.2017 00:00:00 11,4 9,3 - 0,0
27.06.2017 23:00:00 11,7 9,4 - 0,0
27.06.2017 22:00:00 12,7 8,8 - 0,0
27.06.2017 21:00:00 13,2 8,6 - 0,0
27.06.2017 20:00:00 13,6 8,5 - 0,0
27.06.2017 19:00:00 12,4 10,8 - 0,0
27.06.2017 18:00:00 13,0 10,2 - 0,0
27.06.2017 17:00:00 12,2 10,8 - 0,0
27.06.2017 16:00:00 12,0 10,6 - 0,0
27.06.2017 15:00:00 12,0 11,1 - 0,4
27.06.2017 14:00:00 12,4 10,6 - 0,6
27.06.2017 13:00:00 11,8 10,8 - 1,2
27.06.2017 12:00:00 11,1 9,7 - 1,8
27.06.2017 11:00:00 12,0 8,7 - 0,0
27.06.2017 10:00:00 12,0 8,1 1,0 0,0
27.06.2017 09:00:00 10,9 9,2 - 0,0
27.06.2017 08:00:00 10,6 8,5 - 0,0
27.06.2017 07:00:00 10,4 8,8 - 0,0
27.06.2017 06:00:00 10,0 8,6 - 0,0
27.06.2017 05:00:00 9,9 8,5 - 0,0
27.06.2017 04:00:00 10,1 8,6 - 0,0
27.06.2017 03:00:00 10,1 8,6 - 0,0
27.06.2017 02:00:00 10,1 8,2 - 0,0
27.06.2017 01:00:00 10,2 8,0 - 0,0
27.06.2017 00:00:00 10,6 7,8 - 0,0
26.06.2017 23:00:00 11,3 7,4 - 0,0
26.06.2017 22:00:00 12,0 7,3 - 0,0
26.06.2017 21:00:00 12,6 6,7 - 0,0
26.06.2017 20:00:00 13,3 6,8 - 0,0
26.06.2017 19:00:00 14,4 7,4 - 0,0
26.06.2017 18:00:00 14,3 7,2 - 0,0
26.06.2017 17:00:00 15,5 7,2 - 0,0
26.06.2017 16:00:00 14,5 7,8 - 0,0
26.06.2017 15:00:00 14,0 8,2 - 0,0
26.06.2017 14:00:00 13,8 8,4 - 0,0
26.06.2017 13:00:00 13,4 5,8 - 0,0
26.06.2017 12:00:00 13,3 7,1 - 0,0
26.06.2017 11:00:00 12,6 7,0 - -
26.06.2017 10:00:00 11,7 6,9 4,0 0,0
26.06.2017 09:00:00 12,6 8,2 - 0,0
26.06.2017 08:00:00 10,1 8,4 - 0,0
26.06.2017 07:00:00 8,8 8,2 - 0,2
26.06.2017 06:00:00 8,0 7,5 - 0,0
26.06.2017 05:00:00 6,7 6,0 - 0,0
26.06.2017 04:00:00 8,3 7,6 - 0,0
26.06.2017 03:00:00 7,9 7,2 - 0,0
26.06.2017 02:00:00 8,4 7,5 - 0,0
26.06.2017 01:00:00 9,3 7,9 - 0,0
26.06.2017 00:00:00 9,1 7,9 - 0,0
25.06.2017 23:00:00 9,6 7,9 - 0,0
25.06.2017 22:00:00 10,9 7,8 - 0,0
25.06.2017 21:00:00 11,8 7,4 - 0,0
25.06.2017 20:00:00 13,4 6,8 - 0,0
25.06.2017 19:00:00 13,4 5,9 - 0,0
25.06.2017 18:00:00 13,8 6,2 - 0,0
25.06.2017 17:00:00 14,6 5,3 - 0,0
25.06.2017 16:00:00 13,2 6,1 - 0,0
25.06.2017 15:00:00 15,4 6,1 - 0,0
25.06.2017 14:00:00 15,4 6,5 - 0,0
25.06.2017 13:00:00 14,6 6,0 - 0,0
25.06.2017 12:00:00 14,0 6,5 - 0,0
25.06.2017 11:00:00 14,3 8,3 - 0,0
25.06.2017 10:00:00 12,8 7,1 19 0,0
25.06.2017 09:00:00 12,1 7,5 - 0,0
25.06.2017 08:00:00 11,7 7,4 - 0,0
25.06.2017 07:00:00 11,2 6,9 - 0,0
25.06.2017 06:00:00 10,4 7,2 - 0,0
25.06.2017 05:00:00 9,8 6,4 - 0,0
25.06.2017 04:00:00 9,8 6,6 - 0,0
25.06.2017 03:00:00 10,0 7,5 - 0,0
25.06.2017 02:00:00 10,2 8,1 - 0,4
25.06.2017 01:00:00 10,2 7,8 - 0,4
25.06.2017 00:00:00 10,7 6,6 - 0,0
24.06.2017 23:00:00 11,0 6,3 - 0,0
24.06.2017 22:00:00 11,5 5,8 - 0,0
24.06.2017 21:00:00 11,8 5,3 - 0,0
24.06.2017 20:00:00 12,8 3,6 - 0,0
24.06.2017 19:00:00 13,9 5,0 - 0,0
24.06.2017 18:00:00 13,6 6,0 - 0,0
24.06.2017 17:00:00 14,2 6,6 - 0,0
24.06.2017 16:00:00 13,6 6,3 - 0,0
24.06.2017 15:00:00 13,4 6,4 - 0,0
24.06.2017 14:00:00 13,6 6,7 - 0,0
24.06.2017 13:00:00 14,2 5,7 - 0,0
24.06.2017 12:00:00 - - - 0,0
24.06.2017 11:00:00 14,2 6,1 - 0,0
24.06.2017 10:00:00 14,3 6,9 29 0,0
24.06.2017 09:00:00 14,0 4,7 - 0,0
24.06.2017 08:00:00 13,2 5,9 - 0,0
24.06.2017 07:00:00 11,0 6,9 - 0,0
24.06.2017 06:00:00 10,3 6,7 - 0,0
24.06.2017 05:00:00 9,6 6,6 - 0,0
24.06.2017 04:00:00 10,3 6,5 - 0,0
24.06.2017 03:00:00 10,6 6,6 - 0,0
24.06.2017 02:00:00 10,9 6,8 - 0,0
24.06.2017 01:00:00 10,9 6,4 - 0,0
24.06.2017 00:00:00 11,6 6,7 - 0,0
23.06.2017 23:00:00 11,5 7,0 - 0,0
23.06.2017 22:00:00 11,8 6,3 10 0,0
23.06.2017 21:00:00 12,3 6,6 - 0,0
23.06.2017 20:00:00 13,1 7,6 - 0,0
23.06.2017 19:00:00 13,9 7,1 - 0,0
23.06.2017 18:00:00 14,1 7,2 - 0,0
23.06.2017 17:00:00 14,7 6,9 - 0,0
23.06.2017 16:00:00 15,4 6,8 - 0,0
23.06.2017 15:00:00 15,3 6,4 - 0,0
23.06.2017 14:00:00 15,9 6,0 - 0,0
23.06.2017 13:00:00 16,9 7,9 - 0,0
23.06.2017 12:00:00 15,6 8,6 - 0,0
23.06.2017 11:00:00 15,5 9,7 - 0,0
23.06.2017 10:00:00 15,2 10,1 1,0 0,0
23.06.2017 09:00:00 16,2 10,5 - 0,0
23.06.2017 08:00:00 15,6 12,1 - 0,0
23.06.2017 07:00:00 13,9 12,0 - 0,0
23.06.2017 06:00:00 13,6 11,3 - 0,0
23.06.2017 05:00:00 13,3 11,0 - 0,0
23.06.2017 04:00:00 13,5 10,9 - 0,0
23.06.2017 03:00:00 13,3 10,7 - 0,0
23.06.2017 02:00:00 13,3 10,5 - 0,0
23.06.2017 01:00:00 12,6 10,8 - 0,2
23.06.2017 00:00:00 12,6 10,6 - 0,4
22.06.2017 23:00:00 12,5 10,4 - 0,0

tt = Temperatura
td = dewpoint
vv = visibility
rr = precipitazioni

Stazioni seguenti

WeatherPro
AMSI
MeteoEarth